Temperature
3 4 3 3 3 3 2 2 2 3 3 2 1 1 1 0 -0 -1 -1 -2 -2 -3 -3 -3 -3 -3 -4 -4 -4 -4 -4 -4 -4 -4 -4 -4 -4 -3 -3 -3 -3 -3 -3 -2
1 3 3 2 2 2 2 2 2 2 1 1 1 1 0 -0 -1 -2 -2 -2 -3 -3 -4 -4 -4 -4 -4 -4 -4 -4 -4 -4 -4 -4 -4 -4 -4 -4 -4 -4 -4 -3 -3 -3
1 2 2 1 1 2 2 2 1 1 0 1 0 -0 -1 -1 -2 -2 -3 -3 -4 -4 -4 -4 -5 -5 -5 -5 -5 -5 -5 -5 -5 -5 -5 -5 -5 -5 -4 -4 -4 -4 -4 -3
0 1 -1 1 2 2 1 1 0 0 0 -0 -0 -1 -1 -2 -2 -3 -3 -4 -4 -5 -5 -5 -5 -5 -5 -5 -5 -5 -5 -6 -5 -6 -6 -5 -5 -5 -5 -5 -5 -4 -4 -4
-1 -1 1 1 0 0 -0 -1 -0 -1 -1 -1 -1 -2 -2 -2 -3 -3 -4 -4 -5 -5 -5 -6 -6 -6 -6 -6 -6 -6 -6 -6 -6 -6 -6 -6 -6 -6 -6 -5 -5 -5 -5 -4
-1 -1 -0 1 -1 -0 -0 -2 -1 -1 -2 -2 -2 -4 -3 -3 -4 -4 -5 -5 -5 -6 -6 -6 -6 -6 -6 -6 -6 -7 -7 -7 -7 -7 -7 -7 -6 -6 -6 -6 -6 -6 -5 -5
-2 -2 -1 -1 -1 -1 -2 -2 -2 -2 -2 -3 -3 -4 -4 -4 -5 -5 -6 -6 -6 -6 -6 -6 -7 -7 -7 -7 -7 -7 -7 -7 -7 -7 -7 -7 -7 -7 -7 -7 -6 -6 -6 -6
-2 -2 -2 -2 -2 -2 -3 -2 -2 -3 -3 -4 -4 -4 -5 -5 -6 -6 -6 -6 -7 -7 -7 -7 -7 -7 -7 -7 -8 -8 -8 -8 -8 -8 -8 -8 -7 -7 -7 -7 -7 -7 -6 -6
-2 -2 -1 -2 -2 -2 -2 -3 -3 -4 -4 -5 -5 -5 -6 -6 -6 -6 -7 -7 -7 -7 -7 -7 -8 -8 -8 -8 -8 -8 -8 -8 -8 -8 -8 -8 -8 -8 -8 -8 -8 -7 -7 -7
-2 -3 -2 -2 -3 -3 -3 -4 -4 -5 -5 -5 -6 -6 -7 -7 -7 -7 -7 -8 -8 -8 -8 -8 -8 -8 -8 -9 -9 -9 -9 -9 -9 -9 -8 -8 -8 -8 -8 -8 -8 -8 -8 -7
-3 -3 -3 -3 -3 -4 -4 -5 -5 -5 -6 -6 -7 -7 -7 -7 -8 -8 -8 -8 -8 -9 -9 -9 -9 -9 -9 -9 -9 -9 -9 -9 -9 -9 -9 -9 -8 -9 -9 -8 -8 -8 -8 -8
-4 -3 -4 -4 -4 -5 -5 -5 -6 -6 -6 -7 -7 -7 -8 -8 -8 -8 -9 -9 -9 -9 -9 -9 -9 -9 -9 -9 -9 -9 -9 -9 -9 -9 -9 -9 -9 -9 -8 -9 -8 -8 -8 -8
-4 -4 -4 -5 -5 -5 -6 -6 -6 -7 -7 -7 -7 -8 -8 -8 -9 -9 -9 -9 -9 -10 -10 -10 -10 -9 -9 -9 -10 -10 -10 -10 -10 -10 -10 -10 -10 -9 -9 -8 -8 -9 -9 -9
-5 -5 -6 -6 -6 -6 -6 -7 -7 -7 -7 -8 -8 -8 -9 -9 -9 -9 -9 -10 -10 -10 -10 -10 -10 -10 -10 -10 -10 -10 -10 -10 -10 -10 -10 -10 -10 -10 -10 -10 -9 -9 -9 -9
-6 -6 -6 -6 -7 -7 -7 -7 -7 -7 -8 -8 -8 -9 -9 -9 -9 -10 -10 -10 -10 -10 -10 -10 -10 -10 -10 -10 -10 -10 -10 -10 -10 -10 -10 -10 -10 -10 -10 -10 -10 -10 -9 -9
-7 -7 -7 -7 -7 -7 -7 -8 -8 -8 -8 -9 -9 -9 -10 -10 -10 -10 -10 -10 -10 -10 -10 -10 -10 -10 -10 -10 -10 -10 -10 -10 -10 -10 -11 -10 -10 -11 -10 -10 -10 -10 -10 -10
-7 -8 -8 -8 -8 -8 -8 -8 -8 -9 -9 -9 -9 -10 -10 -10 -10 -10 -10 -11 -11 -11 -11 -11 -11 -11 -11 -11 -11 -11 -11 -11 -11 -11 -11 -11 -11 -11 -11 -11 -11 -11 -10 -10
-7 -8 -8 -8 -8 -8 -8 -9 -9 -9 -9 -10 -10 -10 -10 -10 -11 -11 -11 -11 -11 -11 -11 -11 -11 -11 -11 -11 -11 -11 -11 -11 -11 -11 -11 -11 -11 -11 -11 -11 -11 -11 -11 -10
-8 -8 -8 -8 -8 -9 -9 -9 -9 -9 -10 -10 -10 -10 -10 -11 -11 -11 -11 -11 -11 -11 -11 -11 -11 -11 -11 -11 -11 -11 -11 -11 -11 -11 -11 -11 -12 -12 -11 -11 -11 -11 -11 -11
-8 -8 -8 -9 -9 -9 -9 -10 -10 -10 -10 -10 -11 -11 -11 -11 -11 -12 -12 -12 -12 -12 -12 -12 -12 -12 -12 -12 -12 -12 -12 -12 -12 -12 -12 -12 -12 -12 -12 -12 -12 -12 -11 -11
-8 -9 -9 -9 -9 -10 -10 -10 -10 -10 -11 -11 -11 -11 -11 -12 -12 -12 -12 -12 -12 -12 -12 -12 -12 -12 -12 -12 -12 -12 -12 -12 -12 -12 -12 -12 -12 -12 -12 -12 -12 -12 -12 -11
-9 -9 -9 -10 -10 -10 -10 -11 -11 -11 -11 -11 -11 -12 -12 -12 -12 -12 -12 -12 -13 -13 -12 -12 -12 -12 -13 -12 -12 -12 -12 -12 -12 -12 -12 -12 -12 -12 -12 -12 -12 -12 -12 -12
-9 -10 -10 -10 -10 -11 -11 -11 -11 -11 -11 -12 -12 -12 -12 -12 -12 -13 -12 -13 -13 -13 -13 -13 -13 -13 -13 -13 -13 -13 -12 -12 -12 -12 -12 -13 -13 -13 -13 -13 -12 -12 -12 -12
-10 -10 -11 -11 -11 -11 -11 -11 -11 -12 -12 -12 -12 -12 -13 -13 -12 -13 -13 -13 -13 -13 -13 -13 -13 -13 -13 -13 -13 -13 -13 -13 -13 -13 -13 -13 -13 -13 -13 -13 -13 -13 -12 -12
-11 -11 -11 -11 -11 -11 -12 -12 -12 -12 -12 -12 -12 -13 -13 -13 -13 -13 -13 -13 -13 -13 -13 -13 -13 -13 -13 -13 -13 -13 -13 -13 -13 -13 -13 -13 -13 -13 -13 -13 -13 -13 -13 -13
-11 -11 -12 -12 -12 -12 -12 -12 -12 -12 -13 -13 -13 -13 -13 -13 -13 -13 -13 -13 -13 -14 -14 -14 -14 -14 -14 -14 -14 -14 -14 -14 -14 -14 -14 -13 -13 -13 -13 -13 -13 -13 -13 -13
-11 -12 -12 -12 -12 -12 -13 -13 -13 -13 -13 -13 -13 -13 -13 -13 -13 -14 -14 -14 -14 -14 -14 -14 -14 -14 -14 -14 -14 -14 -14 -14 -14 -14 -14 -14 -14 -14 -14 -14 -13 -13 -13 -13
Wind_Speed
7 7 6 8 8 8 10 9 8 8 8 5 1 1 1 1 2 3 4 4 5 6 6 6 6 6 7 7 7 7 7 7 7 7 7 6 6 6 6 6 7 6 6 6
6 7 7 10 11 10 10 10 11 11 10 3 1 1 1 2 3 4 4 5 6 6 7 7 7 8 8 8 8 7 7 7 8 7 7 7 7 6 6 6 6 5 6 6
4 2 5 9 8 9 6 5 5 9 6 1 2 2 2 3 3 3 4 5 6 7 7 7 7 7 8 8 8 8 8 8 8 7 7 7 8 7 7 6 6 6 5 6
3 3 7 5 1 1 4 5 4 3 2 2 2 3 3 2 2 3 5 6 6 6 7 7 7 7 7 7 7 8 8 8 8 7 7 7 7 7 7 6 6 6 6 6
3 5 8 3 1 1 1 4 1 2 3 2 4 4 3 2 3 4 5 5 6 6 7 7 8 8 7 7 7 8 8 8 8 8 8 8 7 7 7 6 6 6 6 6
4 4 6 2 2 2 1 3 1 1 1 2 3 4 4 4 5 5 5 5 6 6 7 7 7 7 7 7 7 8 8 8 8 8 8 8 8 7 7 6 7 7 7 6
6 6 6 1 2 2 1 4 2 2 2 2 2 3 5 6 6 5 6 6 6 6 7 7 7 7 7 8 8 8 8 8 8 8 8 8 7 6 7 7 6 6 6 6
5 6 7 2 2 2 2 1 2 3 3 3 4 5 6 6 6 6 6 7 7 6 7 7 6 6 8 8 8 8 8 8 8 8 8 8 7 6 6 6 6 6 5 5
5 5 1 2 2 1 2 1 2 3 3 4 5 6 6 7 7 7 7 7 7 7 7 7 6 6 8 8 8 8 8 8 8 8 7 7 6 6 6 5 5 5 5 5
3 4 2 2 1 1 1 1 2 2 3 4 5 6 7 7 7 7 7 7 7 7 7 8 7 7 7 8 8 8 8 8 8 7 7 7 6 5 5 5 5 5 5 5
5 3 1 2 1 0 1 1 1 2 3 4 5 6 6 6 7 6 7 6 6 6 7 8 8 8 8 7 7 8 8 8 8 7 7 6 6 5 6 5 6 6 5 5
4 2 2 2 0 1 1 2 2 3 4 4 4 6 6 6 6 6 6 6 6 7 8 8 8 8 8 7 7 8 8 8 6 6 6 6 5 6 8 8 11 11 9 8
1 1 0 1 1 1 1 3 3 3 3 4 4 5 5 6 6 6 6 6 7 7 8 8 8 8 8 7 7 7 7 8 6 6 6 6 6 6 7 8 9 10 10 9
1 1 1 1 1 2 2 3 3 3 3 4 4 5 5 6 6 6 7 7 7 7 8 8 8 8 8 8 8 7 7 8 8 6 5 5 6 6 5 6 7 6 7 9
1 1 1 1 1 2 2 3 3 4 4 4 4 4 5 6 6 7 7 7 7 7 8 7 8 9 8 8 8 7 7 6 5 5 5 5 5 5 5 6 6 6 6 6
1 1 0 1 2 3 3 3 4 5 5 5 5 5 5 6 6 6 6 6 6 8 8 8 9 8 8 8 8 7 6 9 8 5 5 5 5 5 5 5 5 5 5 5
1 1 1 2 3 4 4 4 4 5 5 5 5 5 5 6 6 6 7 6 6 7 8 8 8 8 8 7 7 6 6 7 9 7 5 5 5 5 5 5 5 5 5 6
2 2 2 3 3 4 4 4 4 4 5 5 5 5 5 6 6 7 8 7 7 8 8 7 7 8 7 7 6 5 5 5 5 5 5 5 5 5 5 5 5 6 6 6
1 1 2 2 2 3 3 4 4 4 5 4 4 5 5 6 6 7 7 7 7 8 8 7 12 9 8 8 8 5 5 6 6 5 5 7 6 5 5 5 5 5 5 5
1 1 2 2 2 2 3 3 4 4 4 4 4 5 6 6 6 7 7 6 5 6 7 9 9 7 7 7 9 5 5 6 6 5 5 5 5 5 5 5 5 5 5 5
1 2 2 2 3 3 3 3 3 4 4 4 4 5 6 7 6 5 5 6 6 6 7 11 7 6 6 8 9 5 5 5 5 5 5 5 5 5 5 5 6 6 6 5
2 2 2 2 3 3 3 3 3 3 4 4 4 5 5 6 6 6 5 5 6 10 8 6 6 9 11 11 5 5 5 5 4 4 4 5 5 5 5 5 5 5 5 5
2 1 2 2 2 3 3 3 3 3 4 4 4 5 5 5 5 5 6 5 5 10 8 6 10 14 14 8 5 5 5 5 5 5 5 5 5 5 5 5 5 5 5 5
1 2 2 2 2 2 3 4 3 3 3 4 4 4 4 5 4 4 4 9 12 12 7 10 14 14 12 6 5 5 5 5 5 5 5 5 5 5 5 5 5 5 5 5
1 2 2 2 2 2 3 3 3 3 3 3 4 4 3 3 4 5 5 6 11 11 7 10 14 14 8 5 5 5 5 5 6 5 5 5 5 5 5 5 5 5 5 5
2 2 2 2 2 2 2 2 2 3 3 4 4 3 3 3 4 4 5 6 7 10 7 6 7 8 6 5 5 6 5 6 7 6 6 5 5 5 5 5 6 5 5 5
2 2 2 2 2 2 2 2 2 3 3 4 4 4 4 4 4 5 6 5 6 6 5 5 5 5 5 5 6 6 5 5 5 5 5 5 5 5 5 5 5 5 5 5
Wind_Direction
275 286 280 268 258 237 232 238 248 268 278 282 288 288 324 336 347 341 330 333 338 336 333 334 335 332 328 328 327 324 321 319 315 313 309 307 309 308 306 304 301 298 297 292
278 261 266 270 259 245 241 245 255 273 281 303 350 354 337 334 333 319 318 329 336 334 332 330 330 328 325 323 323 320 314 311 312 313 314 311 310 308 305 302 299 297 296 294
269 280 300 266 243 226 230 231 241 257 267 336 338 343 327 311 305 303 322 334 331 325 323 322 323 324 319 316 320 318 314 314 315 315 312 309 311 310 305 304 302 297 297 296
274 306 251 245 57 158 226 250 244 255 310 354 349 343 329 321 333 340 337 328 322 321 321 322 322 319 314 316 319 318 316 317 320 319 313 309 307 305 305 303 301 298 295 292
235 259 270 255 145 118 206 274 236 235 291 342 14 350 320 2 10 344 331 321 316 317 316 315 315 316 317 316 316 316 317 318 318 318 313 309 305 301 302 302 300 296 292 289
226 244 256 256 102 49 52 269 14 42 311 340 4 311 295 342 343 333 327 320 318 318 316 313 313 317 315 313 314 314 314 314 314 312 307 303 299 299 299 296 293 295 291 283
232 243 260 174 131 100 195 253 12 27 353 328 290 272 305 331 326 320 320 320 322 318 311 311 317 323 316 309 308 310 312 311 309 307 305 302 299 299 298 297 296 293 289 285
207 229 249 124 132 178 221 41 28 10 0 336 318 318 318 318 317 320 320 319 319 314 310 315 320 320 312 309 308 310 309 308 307 306 306 307 304 304 301 300 298 296 292 291
202 220 232 131 134 111 64 30 359 353 347 333 315 309 311 313 315 315 315 315 315 311 311 314 316 315 309 309 314 313 309 306 306 306 303 302 301 301 300 298 296 298 298 297
260 252 236 175 123 60 40 337 340 342 333 323 307 308 311 312 314 316 316 314 316 318 314 313 316 316 311 313 315 314 310 306 305 304 304 303 301 299 298 297 296 297 298 298
251 259 298 228 196 40 344 341 331 322 321 315 309 306 307 308 310 311 313 315 317 314 309 310 316 316 317 319 319 314 310 308 308 305 301 299 298 295 296 285 288 294 288 288
235 222 216 246 155 29 335 323 311 307 310 315 310 304 307 307 310 310 310 313 314 311 311 313 316 315 317 319 318 313 311 311 309 307 305 304 303 306 304 304 306 305 302 298
237 12 19 270 4 24 332 317 316 311 303 306 306 303 305 306 309 310 312 314 313 313 312 312 314 315 317 318 316 310 305 305 306 307 305 304 305 306 311 316 314 312 311 308
37 46 294 287 313 339 329 321 323 315 307 304 307 310 310 308 310 312 311 312 312 312 310 311 313 314 317 318 315 310 305 303 304 302 301 301 300 301 304 308 314 316 313 312
6 340 255 307 347 342 338 332 324 317 318 318 318 316 314 311 308 308 310 314 315 314 314 317 317 316 321 321 317 312 309 307 303 301 300 299 300 302 301 302 305 310 315 317
327 345 309 308 315 322 326 321 311 308 314 314 315 315 312 307 304 306 311 317 318 316 317 317 314 316 323 323 319 315 312 312 314 307 303 302 302 302 302 302 303 305 308 312
189 264 275 289 294 299 301 299 296 299 307 309 309 313 315 314 312 313 315 316 312 308 310 312 313 318 322 320 317 314 313 314 315 311 305 302 302 301 299 298 298 299 300 304
224 246 253 259 273 288 299 303 304 307 306 306 312 315 315 313 310 311 314 318 319 316 315 316 320 322 321 320 318 314 312 309 308 304 303 303 301 296 296 296 298 298 302 306
288 279 286 291 292 292 296 304 310 310 309 310 312 309 306 304 305 308 315 320 321 318 320 326 329 330 324 323 325 315 313 311 308 306 304 307 309 307 303 299 298 298 300 304
316 311 309 311 315 304 298 303 307 308 310 313 314 314 313 311 311 313 313 307 299 300 311 322 325 324 323 320 323 314 310 308 307 305 305 307 308 308 307 308 308 307 305 304
306 308 310 311 310 304 293 294 300 305 312 316 311 307 307 310 311 311 312 312 317 324 327 329 332 325 320 320 321 321 316 314 315 315 314 312 310 309 309 309 310 309 308 309
290 292 298 300 302 309 310 305 299 302 311 315 313 311 313 314 315 311 299 294 309 326 333 325 322 323 327 328 328 325 323 323 321 320 318 316 313 312 311 311 310 310 311 312
281 283 292 295 294 299 309 309 303 305 307 308 310 312 310 309 311 313 315 321 326 327 331 322 324 327 331 340 337 331 328 325 322 320 318 315 313 313 312 312 312 312 313 313
308 310 303 301 304 307 311 312 312 308 302 299 298 298 301 310 312 305 301 319 328 328 327 324 330 333 338 347 335 330 327 324 320 318 316 314 313 313 312 311 311 312 311 311
311 299 295 305 306 301 302 310 313 309 308 309 308 308 306 300 302 312 317 319 325 330 328 329 333 337 343 335 332 329 328 325 322 322 323 324 321 318 316 314 311 309 309 308
306 303 298 291 289 297 306 312 314 315 318 320 321 323 323 321 316 317 319 319 320 328 331 326 327 332 334 331 330 329 327 326 329 332 328 324 322 319 317 317 317 313 307 304
311 312 321 330 331 331 326 320 315 319 323 321 319 323 327 327 326 327 326 326 326 327 326 326 329 330 329 329 328 327 326 325 326 326 325 324 323 320 319 316 315 315 312 306
Height
1522 1521 1521 1521 1521 1521 1523 1522 1523 1515 1513 1513 1514 1515 1515 1515 1515 1515 1514 1513 1511 1509 1507 1505 1502 1499 1497 1494 1491 1488 1485 1482 1479 1477 1474 1472 1470 1468 1467 1465 1464 1463 1462 1461
1525 1520 1520 1520 1516 1516 1517 1517 1516 1514 1513 1512 1513 1513 1513 1513 1513 1513 1512 1511 1509 1507 1505 1502 1499 1496 1493 1490 1487 1484 1481 1478 1475 1472 1470 1468 1466 1464 1462 1461 1460 1459 1457 1457
1526 1519 1520 1519 1511 1511 1511 1510 1512 1514 1512 1511 1511 1511 1512 1512 1511 1510 1510 1508 1506 1504 1502 1499 1496 1493 1490 1486 1483 1480 1477 1474 1471 1468 1465 1463 1462 1460 1458 1457 1455 1454 1453 1452
1527 1525 1529 1511 1506 1505 1507 1508 1509 1509 1509 1510 1511 1510 1510 1510 1509 1508 1507 1505 1503 1501 1498 1496 1493 1489 1486 1483 1480 1476 1473 1470 1467 1464 1461 1459 1457 1455 1454 1452 1451 1449 1448 1448
1529 1527 1514 1509 1507 1507 1509 1509 1507 1508 1508 1509 1509 1508 1508 1508 1507 1506 1505 1503 1501 1498 1495 1492 1489 1485 1482 1479 1476 1473 1469 1466 1463 1460 1457 1455 1453 1451 1449 1448 1446 1445 1444 1443
1527 1527 1518 1508 1508 1507 1509 1511 1507 1507 1507 1508 1508 1510 1507 1505 1504 1503 1501 1499 1497 1494 1491 1488 1485 1482 1478 1475 1472 1469 1466 1462 1460 1457 1454 1451 1449 1447 1445 1444 1442 1440 1439 1438
1526 1523 1512 1509 1507 1508 1515 1511 1507 1506 1507 1507 1507 1508 1506 1503 1501 1500 1498 1495 1493 1490 1487 1484 1481 1478 1474 1471 1468 1465 1462 1459 1456 1453 1450 1448 1445 1443 1441 1439 1437 1436 1435 1434
1521 1521 1515 1508 1507 1509 1510 1507 1506 1506 1506 1506 1505 1504 1502 1501 1498 1496 1493 1491 1488 1486 1483 1480 1477 1474 1470 1467 1464 1461 1458 1455 1452 1449 1447 1444 1442 1439 1437 1435 1433 1431 1430 1429
1511 1510 1505 1504 1504 1505 1505 1505 1505 1505 1504 1504 1502 1501 1499 1497 1495 1492 1490 1487 1484 1482 1479 1476 1473 1470 1467 1463 1460 1457 1454 1451 1448 1445 1443 1441 1438 1436 1434 1432 1430 1428 1427 1425
1506 1503 1503 1503 1503 1503 1504 1503 1503 1502 1502 1501 1499 1498 1496 1494 1491 1489 1486 1484 1481 1478 1475 1472 1469 1466 1463 1460 1457 1453 1450 1447 1444 1442 1439 1437 1435 1433 1430 1428 1427 1425 1423 1422
1504 1502 1501 1501 1501 1501 1501 1500 1500 1499 1499 1498 1496 1494 1492 1490 1488 1485 1483 1480 1477 1474 1471 1468 1465 1462 1459 1456 1453 1450 1446 1444 1441 1438 1436 1433 1431 1429 1427 1426 1424 1423 1421 1420
1501 1499 1499 1499 1499 1499 1499 1498 1497 1496 1495 1494 1493 1491 1489 1487 1484 1482 1479 1477 1474 1471 1468 1464 1461 1458 1456 1453 1450 1446 1443 1440 1437 1435 1433 1430 1428 1425 1424 1423 1421 1419 1418 1417
1496 1496 1496 1496 1497 1497 1496 1495 1495 1493 1492 1491 1489 1488 1485 1483 1481 1478 1476 1473 1470 1467 1464 1461 1458 1455 1452 1449 1446 1443 1440 1437 1434 1432 1430 1427 1425 1422 1419 1418 1417 1415 1414 1413
1494 1494 1494 1494 1494 1494 1493 1492 1491 1490 1489 1487 1486 1484 1482 1480 1477 1475 1472 1469 1467 1464 1461 1458 1454 1451 1449 1446 1443 1440 1437 1434 1432 1429 1427 1424 1422 1420 1418 1415 1413 1411 1411 1410
1492 1492 1492 1492 1491 1491 1491 1489 1488 1486 1485 1484 1482 1480 1478 1476 1473 1471 1469 1466 1463 1460 1457 1454 1451 1448 1445 1442 1440 1437 1434 1431 1429 1426 1424 1422 1420 1417 1415 1413 1411 1409 1407 1406
1489 1490 1490 1489 1489 1488 1488 1487 1485 1483 1482 1480 1479 1477 1475 1473 1470 1468 1465 1463 1460 1456 1454 1451 1448 1445 1442 1439 1436 1434 1431 1429 1426 1424 1421 1419 1417 1415 1413 1411 1409 1407 1405 1404
1487 1487 1487 1487 1486 1486 1485 1484 1483 1481 1479 1477 1476 1474 1472 1469 1467 1464 1462 1460 1457 1454 1451 1448 1445 1442 1439 1437 1434 1431 1428 1426 1424 1421 1419 1417 1415 1413 1411 1409 1407 1405 1403 1402
1485 1485 1485 1485 1484 1483 1482 1481 1480 1478 1476 1475 1473 1471 1468 1466 1463 1461 1459 1456 1453 1451 1448 1445 1443 1440 1437 1434 1431 1428 1426 1423 1421 1419 1416 1414 1412 1411 1409 1407 1405 1403 1401 1400
1483 1483 1483 1482 1482 1481 1479 1478 1476 1475 1473 1472 1470 1467 1465 1463 1461 1458 1456 1453 1450 1447 1445 1442 1440 1437 1434 1431 1429 1426 1423 1421 1418 1416 1414 1412 1410 1408 1406 1404 1403 1401 1399 1398
1481 1481 1480 1479 1479 1478 1476 1475 1473 1472 1470 1468 1466 1464 1462 1460 1458 1455 1453 1450 1448 1445 1442 1440 1437 1434 1431 1429 1426 1423 1421 1418 1416 1413 1411 1409 1408 1406 1404 1402 1400 1399 1397 1395
1479 1478 1478 1477 1476 1475 1474 1472 1471 1469 1468 1466 1464 1462 1460 1457 1455 1453 1450 1447 1446 1443 1440 1437 1434 1432 1429 1426 1424 1421 1418 1416 1413 1411 1409 1407 1405 1403 1401 1400 1398 1396 1395 1393
1477 1476 1475 1474 1473 1472 1471 1470 1469 1467 1465 1463 1461 1459 1457 1455 1453 1450 1448 1446 1443 1441 1438 1435 1432 1430 1427 1424 1421 1419 1416 1414 1411 1409 1407 1405 1403 1401 1399 1397 1396 1394 1392 1391
1475 1474 1473 1472 1471 1470 1469 1468 1466 1465 1463 1461 1459 1457 1455 1453 1451 1448 1446 1444 1441 1438 1436 1433 1430 1428 1425 1422 1419 1417 1414 1412 1409 1407 1405 1403 1401 1399 1397 1395 1393 1392 1390 1388
1473 1472 1471 1470 1469 1468 1466 1465 1464 1462 1461 1459 1458 1456 1454 1451 1449 1447 1445 1442 1439 1437 1434 1431 1428 1426 1423 1420 1417 1415 1412 1410 1408 1405 1403 1401 1399 1397 1395 1393 1391 1389 1388 1386
1471 1470 1469 1468 1467 1465 1464 1463 1462 1460 1459 1458 1456 1454 1452 1450 1448 1445 1443 1440 1437 1434 1432 1429 1426 1424 1421 1418 1415 1413 1410 1408 1406 1403 1401 1399 1397 1395 1393 1391 1389 1387 1385 1384
1469 1468 1467 1466 1465 1464 1462 1461 1460 1459 1457 1455 1454 1452 1450 1448 1446 1443 1441 1438 1435 1433 1430 1427 1425 1422 1419 1416 1414 1411 1409 1406 1404 1401 1399 1397 1395 1392 1390 1388 1386 1384 1383 1381
1467 1466 1465 1464 1463 1462 1461 1459 1458 1457 1455 1454 1452 1450 1448 1446 1444 1442 1439 1436 1433 1431 1428 1426 1423 1420 1418 1415 1412 1410 1407 1405 1402 1400 1397 1395 1392 1390 1388 1386 1384 1382 1381 1379